CW7529 Weather Reports


Display with metric or nautical units.
time (UTC)temp
F
wind
direction
speed
MPH
gust
MPH
rain 1hr
in
rain 24hr
in
rain mn
in
humidity
%
barometer
mb
20260504184942 80 250 9.0 16.0 0.00 0.00 0.00 33 1000.6
20260504184445 79 295 8.0 18.0 0.00 0.00 0.00 34 1000.7
20260504184205 82 255 8.0 18.0 0.00 0.00 0.00 33 1000.5
20260504183440 82 244 10.0 18.0 0.00 0.00 0.00 32 1000.5
20260504183435 81 224 14.0 17.0 0.00 0.00 0.00 33 1000.6
20260504182438 81 297 4.0 15.0 0.00 0.00 0.00 36 1000.7
20260504181941 81 274 2.0 13.0 0.00 0.00 0.00 38 1000.6
20260504181444 80 253 5.0 15.0 0.00 0.00 0.00 35 1000.4
20260504181208 79 240 5.0 15.0 0.00 0.00 0.00 35 1000.5
20260504180437 80 278 6.0 20.0 0.00 0.00 0.00 34 1000.5
20260504175947 80 300 6.0 20.0 0.00 0.00 0.00 35 1000.5
20260504175438 80 255 8.0 17.0 0.00 0.00 0.00 34 1000.6
20260504174941 81 256 4.0 17.0 0.00 0.00 0.00 35 1000.8
20260504174444 80 268 4.0 17.0 0.00 0.00 0.00 37 1000.6
20260504173941 81 256 7.0 13.0 0.00 0.00 0.00 34 1000.5
20260504173438 80 222 8.0 16.0 0.00 0.00 0.00 35 1000.6
20260504172950 79 264 5.0 17.0 0.00 0.00 0.00 39 1000.7
20260504172442 79 241 9.0 17.0 0.00 0.00 0.00 37 1000.8
20260504172437 79 276 4.0 14.0 0.00 0.00 0.00 38 1000.7
20260504171443 78 262 8.0 14.0 0.00 0.00 0.00 39 1000.7
20260504170940 79 250 4.0 14.0 0.00 0.00 0.00 42 1000.7
20260504170437 79 221 7.0 16.0 0.00 0.00 0.00 39 1000.8
20260504150936 71 236 6.0 9.0 0.00 0.00 0.00 53 1001.2
20260504150436 70 248 8.0 9.0 0.00 0.00 0.00 54 1001.3
20260504140936 64 250 3.0 8.0 0.00 0.00 0.00 64 1001.9
20260504140658 64 275 3.0 6.0 0.00 0.00 0.00 63 1001.9
20260504130436 56 225 2.0 5.0 0.00 0.00 0.00 70 1001.9
20260504110435 47 130 0.0 2.0 0.00 0.00 0.00 79 1002.8
20260504110201 48 147 0.0 2.0 0.00 0.00 0.00 78 1002.9
20260504090129 51 212 1.0 4.0 0.00 0.00 0.00 69 1004.2
20260504081914 49 225 2.0 3.0 0.00 0.00 0.00 74 1004.6
20260504081414 49 237 2.0 3.0 0.00 0.00 0.00 74 1004.5
20260504080909 49 226 2.0 3.0 0.00 0.00 0.00 74 1004.7
20260504080412 49 224 2.0 3.0 0.00 0.00 0.00 74 1004.8
20260504050643 55 212 1.0 2.0 0.00 0.00 0.00 57 1006.8
20260504045912 55 197 2.0 2.0 0.00 0.00 0.00 56 1006.6
20260504045409 55 233 2.0 2.0 0.00 0.00 0.00 56 1006.6
20260504044918 55 233 2.0 2.0 0.00 0.00 0.00 55 1006.9
20260504044411 55 229 2.0 2.0 0.00 0.00 0.00 55 1006.9
20260504043912 54 272 1.0 2.0 0.00 0.00 0.00 56 1006.9
20260504043418 53 250 1.0 2.0 0.00 0.00 0.00 58 1007.1
20260504042912 52 236 0.0 2.0 0.00 0.00 0.00 61 1007.1
20260504042408 52 53 0.0 0.0 0.00 0.00 0.00 64 1007.3
20260504041918 53 53 0.0 2.0 0.00 0.00 0.00 62 1007.2
20260504041415 54 235 0.0 2.0 0.00 0.00 0.00 59 1007.1
20260504040913 55 239 1.0 3.0 0.00 0.00 0.00 57 1007.2
20260504040409 57 205 0.0 3.0 0.00 0.00 0.00 53 1007.3
20260504035918 56 180 3.0 3.0 0.00 0.00 0.00 53 1007.3
20260504035409 56 130 0.0 2.0 0.00 0.00 0.00 54 1007.4
20260504035127 56 134 0.0 2.0 0.00 0.00 0.00 52 1007.6
20260504034406 56 186 1.0 1.0 0.00 0.00 0.00 50 1007.6
20260504033908 56 135 0.0 1.0 0.00 0.00 0.00 48 1007.6
20260504033347 56 235 0.0 1.0 0.00 0.00 0.00 47 1007.8
20260504032853 56 215 0.0 1.0 0.00 0.00 0.00 48 1007.7
20260504032348 55 38 0.0 0.0 0.00 0.00 0.00 49 1007.9
20260504031835 56 322 0.0 1.0 0.00 0.00 0.00 47 1008.0
20260504031340 57 322 0.0 2.0 0.00 0.00 0.00 47 1008.0
20260504031320 57 198 0.0 2.0 0.00 0.00 0.00 45 1007.9
20260504030321 57 309 0.0 0.0 0.00 0.00 0.00 47 1008.1
20260504025831 58 193 0.0 1.0 0.00 0.00 0.00 46 1008.0
20260504025321 59 147 0.0 1.0 0.00 0.00 0.00 44 1008.1
20260504024825 60 219 0.0 1.0 0.00 0.00 0.00 42 1007.9
20260504024321 60 178 1.0 2.0 0.00 0.00 0.00 42 1008.0
20260504023830 59 173 0.0 2.0 0.00 0.00 0.00 44 1008.1
20260504023322 59 261 0.0 2.0 0.00 0.00 0.00 43 1007.9
20260504023048 59 339 0.0 2.0 0.00 0.00 0.00 44 1007.7
20260504022323 59 219 0.0 2.0 0.00 0.00 0.00 44 1007.9
20260504021825 58 139 0.0 1.0 0.00 0.00 0.00 46 1007.8
20260504021548 58 44 0.0 2.0 0.00 0.00 0.00 45 1007.9
20260504020825 60 230 0.0 3.0 0.00 0.00 0.00 43 1007.8
20260504020322 61 214 1.0 3.0 0.00 0.00 0.00 42 1007.8
20260504015831 60 229 2.0 2.0 0.00 0.00 0.00 42 1007.7
20260504015543 61 230 0.0 2.0 0.00 0.00 0.00 40 1007.7
20260504015048 61 261 1.0 2.0 0.00 0.00 0.00 40 1007.8
20260504014321 61 0 0.0 1.0 0.00 0.00 0.00 39 1007.9
20260504013822 62 22 0.0 1.0 0.00 0.00 0.00 39 1007.7
20260504013318 61 352 0.0 2.0 0.00 0.00 0.00 38 1007.7
20260504012821 62 352 0.0 2.0 0.00 0.00 0.00 38 1007.8
20260504012318 62 298 0.0 1.0 0.00 0.00 0.00 39 1007.7
20260504011827 63 309 0.0 0.0 0.00 0.00 0.00 36 1007.5
20260504011324 65 309 0.0 1.0 0.00 0.00 0.00 35 1007.8
20260504010819 66 322 0.0 1.0 0.00 0.00 0.00 34 1007.8
20260504010318 67 269 0.0 2.0 0.00 0.00 0.00 33 1007.8
20260504005823 68 299 0.0 2.0 0.00 0.00 0.00 32 1007.8
20260504005318 69 315 2.0 3.0 0.00 0.00 0.00 32 1007.7
20260504004818 71 245 0.0 4.0 0.00 0.00 0.00 30 1007.8
20260504004318 72 292 2.0 5.0 0.00 0.00 0.00 29 1007.8
20260504003824 73 304 0.0 5.0 0.00 0.00 0.00 29 1007.7
20260504003317 73 337 0.0 4.0 0.00 0.00 0.00 28 1007.6
20260504002817 73 272 2.0 7.0 0.00 0.00 0.00 27 1007.8
20260504002318 73 296 2.0 9.0 0.00 0.00 0.00 28 1007.5
20260504001818 73 299 5.0 9.0 0.00 0.00 0.00 26 1007.6
20260504001323 74 325 0.0 6.0 0.00 0.00 0.00 30 1007.9
20260504001037 75 321 3.0 6.0 0.00 0.00 0.00 29 1007.7
20260504000318 75 292 3.0 5.0 0.00 0.00 0.00 25 1007.7
20260503235824 75 324 2.0 6.0 0.00 0.00 0.00 27 1007.8
20260503235318 75 291 0.0 8.0 0.00 0.00 0.00 27 1007.7
20260503234817 74 300 4.0 9.0 0.00 0.00 0.00 27 1007.9
20260503234317 74 309 6.0 9.0 0.00 0.00 0.00 28 1008.0
20260503233818 74 323 6.0 9.0 0.00 0.00 0.00 27 1007.8
20260503233751 74 322 5.0 8.0 0.00 0.00 0.00 26 1007.9
20260503233416 75 322 7.0 8.0 0.00 0.00 0.00 28 1007.8
20260503232544 75 338 3.0 10.0 0.00 0.00 0.00 28 1007.9
20260503231823 74 324 5.0 11.0 0.00 0.00 0.00 29 1007.9
20260503231812 75 329 4.0 11.0 0.00 0.00 0.00 26 1007.9
20260503230817 75 316 5.0 10.0 0.00 0.00 0.00 26 1008.1
20260503230317 76 5 4.0 9.0 0.00 0.00 0.00 26 1007.8
20260503225818 75 305 4.0 13.0 0.00 0.00 0.00 28 1008.0
20260503225323 74 292 5.0 13.0 0.00 0.00 0.00 29 1007.9
20260503224818 75 242 3.0 9.0 0.00 0.00 0.00 28 1008.0
20260503224800 75 287 4.0 13.0 0.00 0.00 0.00 28 1007.9
20260503223824 74 231 6.0 15.0 0.00 0.00 0.00 27 1007.8
20260503223318 75 224 8.0 15.0 0.00 0.00 0.00 28 1007.9
20260503222818 75 341 3.0 13.0 0.00 0.00 0.00 27 1007.8
20260503222317 75 332 7.0 13.0 0.00 0.00 0.00 28 1008.1
20260503221818 74 296 6.0 14.0 0.00 0.00 0.00 28 1008.0
20260503221323 75 231 6.0 14.0 0.00 0.00 0.00 30 1007.9
20260503220817 74 284 4.0 12.0 0.00 0.00 0.00 32 1007.9
20260503220318 74 350 4.0 9.0 0.00 0.00 0.00 28 1008.3
20260503215823 74 328 4.0 8.0 0.00 0.00 0.00 29 1008.2
20260503215318 75 302 3.0 13.0 0.00 0.00 0.00 31 1008.0
20260503214818 75 338 7.0 13.0 0.00 0.00 0.00 27 1008.1
20260503214318 74 295 4.0 11.0 0.00 0.00 0.00 30 1008.0
20260503213818 74 329 5.0 12.0 0.00 0.00 0.00 26 1008.0
20260503213324 76 340 4.0 12.0 0.00 0.00 0.00 31 1008.2
20260503213045 76 329 8.0 12.0 0.00 0.00 0.00 28 1008.1
20260503212318 76 280 5.0 13.0 0.00 0.00 0.00 30 1008.0
20260503211829 76 267 5.0 13.0 0.00 0.00 0.00 29 1008.0
20260503211317 76 291 9.0 10.0 0.00 0.00 0.00 30 1008.1
20260503210821 77 212 3.0 15.0 0.00 0.00 0.00 28 1008.1
20260503210319 75 288 5.0 15.0 0.00 0.00 0.00 31 1008.1
20260503205818 76 309 3.0 14.0 0.00 0.00 0.00 33 1008.4
20260503205542 74 295 10.0 14.0 0.00 0.00 0.00 28 1008.5
20260503204818 75 340 5.0 13.0 0.00 0.00 0.00 30 1008.5
20260503204317 75 310 5.0 13.0 0.00 0.00 0.00 31 1008.4
20260503203823 76 354 8.0 14.0 0.00 0.00 0.00 30 1008.5
20260503203318 76 241 9.0 21.0 0.00 0.00 0.00 29 1008.7
20260503203042 75 269 10.0 19.0 0.00 0.00 0.00 31 1008.6
20260503202919 74 312 11.0 21.0 0.00 0.00 0.00 30 1008.6
20260503201818 75 326 4.0 16.0 0.00 0.00 0.00 34 1008.5
20260503201323 74 254 6.0 16.0 0.00 0.00 0.00 31 1008.7
20260503200818 75 294 9.0 16.0 0.00 0.00 0.00 31 1008.5
20260503200318 75 320 8.0 19.0 0.00 0.00 0.00 30 1008.6
20260503195823 75 280 9.0 19.0 0.00 0.00 0.00 29 1008.8
20260503195317 75 271 9.0 16.0 0.00 0.00 0.00 29 1009.0
20260503194817 74 333 10.0 16.0 0.00 0.00 0.00 29 1008.6
20260503194317 74 327 6.0 14.0 0.00 0.00 0.00 33 1008.7
20260503193817 73 280 5.0 16.0 0.00 0.00 0.00 32 1008.7
20260503193323 73 323 10.0 18.0 0.00 0.00 0.00 34 1008.8
20260503192817 74 305 9.0 18.0 0.00 0.00 0.00 32 1008.8
20260503192542 74 312 5.0 19.0 0.00 0.00 0.00 32 1009.0
20260503191822 73 317 5.0 19.0 0.00 0.00 0.00 33 1008.9
20260503191317 74 320 6.0 17.0 0.00 0.00 0.00 33 1009.0
20260503190816 72 333 7.0 15.0 0.00 0.00 0.00 32 1009.1
20260503190317 72 278 11.0 14.0 0.00 0.00 0.00 33 1008.9
20260503190048 71 285 11.0 15.0 0.00 0.00 0.00 32 1008.6
20260503185322 72 302 10.0 15.0 0.00 0.00 0.00 31 1009.2